Time,TemperatureF,DewpointF,PressureIn,WindDirection,WindDirectionDegrees,WindSpeedMPH,WindSpeedGustMPH,Humidity,HourlyPrecipIn,Conditions,Clouds,dailyrainin,SoftwareType,DateUTC
2013-02-22 00:12:00,37.9,32.0,30.39,East,98,0.0,-999.0,78,-99.99,,,0.01,weatherlink.com 1.10,2013-02-22 05:12:00,
2013-02-22 00:28:00,37.5,32.0,30.39,SE,127,0.0,-999.0,79,-99.99,,,0.07,weatherlink.com 1.10,2013-02-22 05:28:00,
2013-02-22 00:44:00,37.2,31.0,30.39,SE,127,0.0,-999.0,79,-99.99,,,0.10,weatherlink.com 1.10,2013-02-22 05:44:00,
2013-02-22 00:57:00,37.1,31.0,30.39,ESE,122,0.0,-999.0,79,-99.99,,,0.12,weatherlink.com 1.10,2013-02-22 05:57:00,
2013-02-22 01:12:00,37.0,31.0,30.38,East,93,0.0,-999.0,80,-99.99,,,0.16,weatherlink.com 1.10,2013-02-22 06:12:00,
2013-02-22 01:28:00,36.9,31.0,30.39,ENE,62,1.0,-999.0,80,-99.99,,,0.19,weatherlink.com 1.10,2013-02-22 06:28:00,
2013-02-22 01:43:00,36.7,31.0,30.41,ENE,62,0.0,-999.0,80,-99.99,,,0.22,weatherlink.com 1.10,2013-02-22 06:43:00,
2013-02-22 01:58:00,36.5,31.0,30.41,ENE,62,1.0,-999.0,80,-99.99,,,0.24,weatherlink.com 1.10,2013-02-22 06:58:00,
2013-02-22 02:13:00,36.4,31.0,30.40,ENE,62,0.0,-999.0,80,-99.99,,,0.27,weatherlink.com 1.10,2013-02-22 07:13:00,
2013-02-22 02:28:00,36.1,31.0,30.41,ENE,62,0.0,-999.0,81,-99.99,,,0.30,weatherlink.com 1.10,2013-02-22 07:28:00,
2013-02-22 02:43:00,35.6,30.0,30.39,ENE,62,0.0,-999.0,80,-99.99,,,0.31,weatherlink.com 1.10,2013-02-22 07:43:00,
2013-02-22 02:58:00,35.3,30.0,30.38,ENE,62,0.0,-999.0,81,-99.99,,,0.32,weatherlink.com 1.10,2013-02-22 07:58:00,
2013-02-22 03:13:00,35.0,30.0,30.37,ENE,67,2.0,-999.0,81,-99.99,,,0.33,weatherlink.com 1.10,2013-02-22 08:13:00,
2013-02-22 03:28:00,34.7,29.0,30.35,East,88,0.0,-999.0,81,-99.99,,,0.33,weatherlink.com 1.10,2013-02-22 08:28:00,
2013-02-22 03:43:00,34.4,29.0,30.34,NE,39,0.0,-999.0,81,-99.99,,,0.34,weatherlink.com 1.10,2013-02-22 08:43:00,
2013-02-22 03:59:00,34.4,29.0,30.37,NE,38,0.0,-999.0,82,-99.99,,,0.34,weatherlink.com 1.10,2013-02-22 08:59:00,
2013-02-22 04:14:00,34.4,29.0,30.36,ENE,66,0.0,-999.0,82,-99.99,,,0.34,weatherlink.com 1.10,2013-02-22 09:14:00,
2013-02-22 04:29:00,34.2,29.0,30.31,ESE,103,0.0,-999.0,82,-99.99,,,0.34,weatherlink.com 1.10,2013-02-22 09:29:00,
2013-02-22 04:44:00,34.1,29.0,30.32,ENE,69,0.0,-999.0,82,-99.99,,,0.34,weatherlink.com 1.10,2013-02-22 09:44:00,
2013-02-22 04:59:00,34.1,29.0,30.35,ENE,69,0.0,-999.0,82,-99.99,,,0.34,weatherlink.com 1.10,2013-02-22 09:59:00,
2013-02-22 05:14:00,34.1,29.0,30.36,ENE,69,0.0,-999.0,82,-99.99,,,0.34,weatherlink.com 1.10,2013-02-22 10:14:00,
2013-02-22 05:29:00,34.2,29.0,30.35,East,81,0.0,-999.0,82,-99.99,,,0.34,weatherlink.com 1.10,2013-02-22 10:29:00,
2013-02-22 05:44:00,34.1,29.0,30.35,East,81,0.0,-999.0,82,-99.99,,,0.35,weatherlink.com 1.10,2013-02-22 10:44:00,
2013-02-22 05:59:00,34.1,30.0,30.36,East,81,0.0,-999.0,83,-99.99,,,0.36,weatherlink.com 1.10,2013-02-22 10:59:00,
2013-02-22 06:15:00,34.1,30.0,30.36,East,81,0.0,-999.0,83,-99.99,,,0.36,weatherlink.com 1.10,2013-02-22 11:15:00,
2013-02-22 06:29:00,34.2,30.0,30.37,East,81,0.0,-999.0,83,-99.99,,,0.37,weatherlink.com 1.10,2013-02-22 11:29:00,
2013-02-22 06:44:00,34.2,30.0,30.38,ENE,78,0.0,-999.0,83,-99.99,,,0.38,weatherlink.com 1.10,2013-02-22 11:44:00,
2013-02-22 07:00:00,34.3,30.0,30.38,ENE,78,0.0,-999.0,83,-99.99,,,0.38,weatherlink.com 1.10,2013-02-22 12:00:00,
2013-02-22 07:15:00,34.4,30.0,30.38,ENE,72,0.0,-999.0,83,-99.99,,,0.39,weatherlink.com 1.10,2013-02-22 12:15:00,
2013-02-22 07:30:00,34.4,30.0,30.38,ENE,71,0.0,-999.0,83,-99.99,,,0.39,weatherlink.com 1.10,2013-02-22 12:30:00,
2013-02-22 07:45:00,34.4,30.0,30.39,ENE,71,0.0,-999.0,83,-99.99,,,0.39,weatherlink.com 1.10,2013-02-22 12:45:00,
2013-02-22 08:00:00,34.6,30.0,30.38,ENE,71,0.0,-999.0,83,-99.99,,,0.39,weatherlink.com 1.10,2013-02-22 13:00:00,
2013-02-22 08:15:00,34.7,30.0,30.37,ESE,103,2.0,-999.0,83,-99.99,,,0.39,weatherlink.com 1.10,2013-02-22 13:15:00,
2013-02-22 08:30:00,34.7,30.0,30.37,NE,55,2.0,-999.0,83,-99.99,,,0.40,weatherlink.com 1.10,2013-02-22 13:30:00,
2013-02-22 08:45:00,34.6,30.0,30.36,ENE,78,1.0,-999.0,83,-99.99,,,0.40,weatherlink.com 1.10,2013-02-22 13:45:00,
2013-02-22 09:00:00,34.7,30.0,30.37,ENE,76,1.0,-999.0,83,-99.99,,,0.40,weatherlink.com 1.10,2013-02-22 14:00:00,
2013-02-22 09:15:00,34.7,30.0,30.36,NE,55,2.0,-999.0,83,-99.99,,,0.40,weatherlink.com 1.10,2013-02-22 14:15:00,
2013-02-22 09:30:00,34.7,30.0,30.36,NE,51,5.0,-999.0,83,-99.99,,,0.40,weatherlink.com 1.10,2013-02-22 14:30:00,
2013-02-22 09:45:00,34.8,30.0,30.36,East,93,0.0,-999.0,83,-99.99,,,0.40,weatherlink.com 1.10,2013-02-22 14:45:00,
2013-02-22 10:01:00,34.9,30.0,30.37,ESE,119,0.0,-999.0,83,-99.99,,,0.40,weatherlink.com 1.10,2013-02-22 15:01:00,
2013-02-22 10:16:00,35.1,30.0,30.37,East,93,0.0,-999.0,83,-99.99,,,0.40,weatherlink.com 1.10,2013-02-22 15:16:00,
2013-02-22 10:31:00,35.2,31.0,30.38,East,93,2.0,-999.0,83,-99.99,,,0.40,weatherlink.com 1.10,2013-02-22 15:31:00,
2013-02-22 10:46:00,35.4,31.0,30.37,ESE,115,1.0,-999.0,83,-99.99,,,0.40,weatherlink.com 1.10,2013-02-22 15:46:00,
2013-02-22 11:01:00,35.6,31.0,30.37,ENE,57,4.0,-999.0,83,-99.99,,,0.40,weatherlink.com 1.10,2013-02-22 16:01:00,
2013-02-22 11:16:00,35.7,31.0,30.37,NE,51,0.0,-999.0,83,-99.99,,,0.40,weatherlink.com 1.10,2013-02-22 16:16:00,
2013-02-22 11:31:00,35.7,31.0,30.36,SE,144,0.0,-999.0,82,-99.99,,,0.40,weatherlink.com 1.10,2013-02-22 16:31:00,
2013-02-22 11:46:00,36.5,32.0,30.37,SE,125,0.0,-999.0,82,-99.99,,,0.40,weatherlink.com 1.10,2013-02-22 16:46:00,
2013-02-22 12:01:00,36.4,31.0,30.36,NE,51,1.0,-999.0,81,-99.99,,,0.40,weatherlink.com 1.10,2013-02-22 17:01:00,
2013-02-22 12:17:00,36.4,31.0,30.35,ENE,75,2.0,-999.0,81,-99.99,,,0.40,weatherlink.com 1.10,2013-02-22 17:17:00,
2013-02-22 12:32:00,36.5,31.0,30.34,ENE,58,0.0,-999.0,81,-99.99,,,0.40,weatherlink.com 1.10,2013-02-22 17:32:00,
2013-02-22 12:46:00,36.8,32.0,30.32,NE,48,0.0,-999.0,81,-99.99,,,0.40,weatherlink.com 1.10,2013-02-22 17:46:00,
2013-02-22 13:01:00,36.5,31.0,30.32,ENE,63,0.0,-999.0,81,-99.99,,,0.40,weatherlink.com 1.10,2013-02-22 18:01:00,
2013-02-22 13:17:00,36.7,31.0,30.31,ENE,65,0.0,-999.0,81,-99.99,,,0.40,weatherlink.com 1.10,2013-02-22 18:17:00,
2013-02-22 13:32:00,37.0,32.0,30.30,East,84,0.0,-999.0,81,-99.99,,,0.40,weatherlink.com 1.10,2013-02-22 18:32:00,
2013-02-22 13:47:00,37.1,32.0,30.30,ENE,65,0.0,-999.0,81,-99.99,,,0.40,weatherlink.com 1.10,2013-02-22 18:47:00,
2013-02-22 14:02:00,37.1,32.0,30.30,ENE,64,0.0,-999.0,81,-99.99,,,0.41,weatherlink.com 1.10,2013-02-22 19:02:00,
2013-02-22 14:17:00,37.3,32.0,30.29,ENE,64,1.0,-999.0,82,-99.99,,,0.41,weatherlink.com 1.10,2013-02-22 19:17:00,
2013-02-22 14:32:00,37.1,32.0,30.30,ENE,58,0.0,-999.0,82,-99.99,,,0.41,weatherlink.com 1.10,2013-02-22 19:32:00,
2013-02-22 14:47:00,37.4,33.0,30.29,ENE,65,6.0,-999.0,83,-99.99,,,0.41,weatherlink.com 1.10,2013-02-22 19:47:00,
2013-02-22 15:02:00,37.0,32.0,30.30,ENE,67,0.0,-999.0,83,-99.99,,,0.42,weatherlink.com 1.10,2013-02-22 20:02:00,
2013-02-22 15:17:00,37.1,32.0,30.30,ENE,67,2.0,-999.0,83,-99.99,,,0.42,weatherlink.com 1.10,2013-02-22 20:17:00,
2013-02-22 15:33:00,37.2,33.0,30.29,ENE,67,0.0,-999.0,83,-99.99,,,0.42,weatherlink.com 1.10,2013-02-22 20:33:00,
2013-02-22 15:47:00,37.2,33.0,30.29,ENE,64,4.0,-999.0,83,-99.99,,,0.42,weatherlink.com 1.10,2013-02-22 20:47:00,
2013-02-22 16:02:00,37.0,32.0,30.28,SE,131,0.0,-999.0,82,-99.99,,,0.42,weatherlink.com 1.10,2013-02-22 21:02:00,
2013-02-22 16:18:00,37.0,32.0,30.29,SE,132,0.0,-999.0,82,-99.99,,,0.42,weatherlink.com 1.10,2013-02-22 21:18:00,
2013-02-22 16:33:00,37.0,32.0,30.30,East,98,0.0,-999.0,82,-99.99,,,0.42,weatherlink.com 1.10,2013-02-22 21:33:00,
2013-02-22 16:48:00,36.9,32.0,30.27,WSW,256,0.0,-999.0,82,-99.99,,,0.42,weatherlink.com 1.10,2013-02-22 21:48:00,
2013-02-22 17:03:00,36.7,32.0,30.27,East,93,0.0,-999.0,82,-99.99,,,0.42,weatherlink.com 1.10,2013-02-22 22:03:00,
2013-02-22 17:18:00,36.6,32.0,30.27,ENE,78,0.0,-999.0,82,-99.99,,,0.42,weatherlink.com 1.10,2013-02-22 22:18:00,
2013-02-22 17:48:00,36.4,32.0,30.26,East,93,0.0,-999.0,83,-99.99,,,0.42,weatherlink.com 1.10,2013-02-22 22:48:00,
2013-02-22 18:03:00,36.3,31.0,30.27,ENE,70,2.0,-999.0,82,-99.99,,,0.42,weatherlink.com 1.10,2013-02-22 23:03:00,
2013-02-22 18:19:00,36.1,31.0,30.27,ENE,76,0.0,-999.0,83,-99.99,,,0.42,weatherlink.com 1.10,2013-02-22 23:19:00,
2013-02-22 18:33:00,36.0,31.0,30.28,ENE,76,1.0,-999.0,83,-99.99,,,0.43,weatherlink.com 1.10,2013-02-22 23:33:00,
2013-02-22 18:48:00,36.0,31.0,30.27,East,86,0.0,-999.0,83,-99.99,,,0.43,weatherlink.com 1.10,2013-02-22 23:48:00,
2013-02-22 19:03:00,35.9,31.0,30.27,ENE,69,1.0,-999.0,83,-99.99,,,0.43,weatherlink.com 1.10,2013-02-23 00:03:00,
2013-02-22 19:18:00,35.8,31.0,30.28,East,84,2.0,-999.0,83,-99.99,,,0.43,weatherlink.com 1.10,2013-02-23 00:18:00,
2013-02-22 19:34:00,35.6,31.0,30.27,East,98,0.0,-999.0,83,-99.99,,,0.43,weatherlink.com 1.10,2013-02-23 00:34:00,
2013-02-22 19:49:00,35.4,31.0,30.27,East,86,1.0,-999.0,83,-99.99,,,0.43,weatherlink.com 1.10,2013-02-23 00:49:00,
2013-02-22 20:04:00,35.3,31.0,30.27,East,79,0.0,-999.0,83,-99.99,,,0.44,weatherlink.com 1.10,2013-02-23 01:04:00,
2013-02-22 20:19:00,35.2,31.0,30.27,ENE,63,5.0,-999.0,83,-99.99,,,0.44,weatherlink.com 1.10,2013-02-23 01:19:00,
2013-02-22 20:34:00,35.1,30.0,30.28,ENE,70,0.0,-999.0,83,-99.99,,,0.44,weatherlink.com 1.10,2013-02-23 01:34:00,
2013-02-22 20:49:00,35.1,31.0,30.28,ENE,69,0.0,-999.0,84,-99.99,,,0.44,weatherlink.com 1.10,2013-02-23 01:49:00,
2013-02-22 21:04:00,35.0,31.0,30.28,ENE,77,1.0,-999.0,84,-99.99,,,0.44,weatherlink.com 1.10,2013-02-23 02:04:00,
2013-02-22 21:19:00,35.0,30.0,30.28,ENE,78,0.0,-999.0,83,-99.99,,,0.44,weatherlink.com 1.10,2013-02-23 02:19:00,
2013-02-22 21:34:00,35.0,30.0,30.27,East,79,0.0,-999.0,83,-99.99,,,0.44,weatherlink.com 1.10,2013-02-23 02:34:00,
2013-02-22 21:49:00,34.9,31.0,30.28,East,79,0.0,-999.0,84,-99.99,,,0.44,weatherlink.com 1.10,2013-02-23 02:49:00,
2013-02-22 22:04:00,34.9,31.0,30.28,East,79,4.0,-999.0,84,-99.99,,,0.44,weatherlink.com 1.10,2013-02-23 03:04:00,
2013-02-22 22:19:00,34.9,31.0,30.27,East,79,0.0,-999.0,84,-99.99,,,0.44,weatherlink.com 1.10,2013-02-23 03:19:00,
2013-02-22 22:34:00,34.8,30.0,30.27,NE,53,0.0,-999.0,84,-99.99,,,0.44,weatherlink.com 1.10,2013-02-23 03:34:00,
2013-02-22 22:50:00,34.9,31.0,30.25,East,80,1.0,-999.0,84,-99.99,,,0.44,weatherlink.com 1.10,2013-02-23 03:50:00,
2013-02-22 23:05:00,34.8,30.0,30.24,NE,35,1.0,-999.0,84,-99.99,,,0.44,weatherlink.com 1.10,2013-02-23 04:05:00,
2013-02-22 23:20:00,34.7,30.0,30.23,ENE,71,0.0,-999.0,84,-99.99,,,0.44,weatherlink.com 1.10,2013-02-23 04:20:00,
2013-02-22 23:35:00,34.6,30.0,30.24,East,98,0.0,-999.0,84,-99.99,,,0.44,weatherlink.com 1.10,2013-02-23 04:35:00,
2013-02-22 23:50:00,34.6,30.0,30.23,ENE,78,0.0,-999.0,84,-99.99,,,0.45,weatherlink.com 1.10,2013-02-23 04:50:00,